Location: Newark
(36.7000°N, 45.1333°E)
Time: 19:32:55
(UTC+00:00)

LightSail 2 - Pass Details

Date: 22 January 2020
Orbit: 700 x 722 km, 24.0° (Epoch: 19 February)

Event Time Altitude Azimuth Distance (km) Brightness Sun altitude
Rises 16:47:36 0° 247° (WSW) 3,089 9.4 -30.7°
Reaches altitude 10° 16:50:44 10° 229° (SW) 2,174 8.2 -31.3°
Enters shadow 16:53:13 17° 200° (SSW) 1,749 7.3 -31.8°
